sat.trackr.live / text

‹ back to catalog

STARLINK-4400

NORAD 53468 · 2022-099D

PAYLOAD ACTIVE UNKNOWN

§ Identity

Operator
Country
US
Launch date
2022-08-12
Launch site
AFWTR
Launch vehicle
Mass (kg)
RCS (m²)

Purposes: comms

External: N2YO · Heavens-Above · Gunter

§ Orbital elements

Epoch: 2026-09-20T04:00:03.000096Z

Period
94.92 min
Inclination
97.2850°
Eccentricity
0.0000884
Mean motion
15.17013796 rev/d
Perigee alt
514.3 km
Apogee alt
515.5 km
Semi-major
6,893.0 km
B*
3.7447e-3
RAAN
17.0721°
Arg perigee
102.2184°
Mean anomaly
216.2952°
Rev number
557

§ Raw data

STARLINK-44001 53468U 22099D   26263.16670139  .00074657  00000+0  37447-2 0  99952 53468  97.2850  17.0721 0000884 102.2184 216.2952 15.17013796  5579

JSON: /api/v1/satellites/53468 · /tle

For live sub-satellite position, see the globe view (requires WebGL).

§ Visibility from observer

Set your observer location to see the next 7 days of passes ≥ 10°. The values pass through the URL so the page stays shareable.

No JS? Fill the form by hand. The geolocation button needs JavaScript.

§ Radio — SatNOGS DB

ModeDescriptionDownlinkUplink
CW Ku-band 11325 MHz beacon 11.325 GHz
CW Ku-band 11575 MHz beacon 11.575 GHz
CW Ku-band 11950 MHz beacon 11.950 GHz
CW Ku-band 12450 MHz beacon 12.450 GHz

4 transmitters · refreshed weekly from db.satnogs.org